Regional Weather Roundup
Issued by NWS

Home | Current Version | Previous Version | Graphics & Text | Print | Product List | Glossary On
Versions: 1 2 3 4 5 6 7 8 9 10 11 12 13 14 15 16 17 18 19 20 21 22 23 24 25 26 27 28 29 30 31 32 33 34 35 36 37 38 39 40 41 42 43 44 45 46 47 48 49 50
020
ASUS44 KJAN 012203
RWRMS

MISSISSIPPI HOURLY WEATHER ROUNDUP
NATIONAL WEATHER SERVICE JACKSON MS
500 PM CDT FRI AUG 01 2014

NOTE: "FAIR: INDICATES FEW OR NO CLOUDS BELOW 12,000 FEET WITH NO
SIGNIFICANT WEATHER AND/OR OBSTRUCTIONS TO VISIBILITY.

MSZ001>002-007>008-010>013-018>021-025>028-034>036-012300-
NORTHWEST MISSISSIPPI

CITY           SKY/WX    TMP DP  RH WIND       PRES   REMARKS
CLARKSDALE     FAIR      82  66  57 NE7       30.01F
CLEVELAND      FAIR      80  68  66 CALM      30.00S
GREENWOOD      PTSUNNY   80  67  64 S3        30.00F
GREENVILLE     CLOUDY    79  65  62 E6        29.99F
GRENADA        FAIR      82  61  47 CALM      30.00F
OLIVE BRANCH   PTSUNNY   82  64  54 E6        30.03S
OXFORD         FAIR      82  63  51 E6        30.03S
TUNICA         CLEAR     81  64  57 NE5       30.02S
$$

MSZ003>006-009-014>017-022>024-029>033-037>039-012300-
NORTHEAST MISSISSIPPI

CITY           SKY/WX    TMP DP  RH WIND       PRES   REMARKS
BELMONT        FAIR      83  67  59 NE6       30.01F
COLUMBUS AFB   CLOUDY    81  69  68 W5        29.99F
CORINTH        MOCLDY    84  63  48 NE8       30.01S
GOLDN TRIANGLE PTSUNNY   82  66  57 N6        30.00F
STARKVILLE     MOCLDY    81  64  57 CALM      29.99F
TUPELO         CLOUDY    84  65  52 E6        30.00S
$$

MSZ040-058-012300-
CENTRAL MISSISSIPPI

CITY           SKY/WX    TMP DP  RH WIND       PRES   REMARKS
JACKSON INTL   CLOUDY    79  67  66 SE3       30.00F
JACKSON HAWKNS CLOUDY    79  64  60 E6        30.00F
MERIDIAN KEY   CLOUDY    81  67  62 W5        30.00R
MERIDIAN NAS   CLOUDY    84  67  56 W7        29.98F
RAYMOND        FAIR      79  73  83 E6        30.00F
VICKSBURG      LGT RAIN  74  71  91 SE8       29.99F FOG
$$

MSZ059>079-012300-
SOUTH MISSISSIPPI

CITY           SKY/WX    TMP DP  RH WIND       PRES   REMARKS
BROOKHAVEN     FAIR      73  72  94 CALM      30.02F FOG
COLUMBIA       FAIR      77  72  83 CALM      29.99F
HATTIESBURG    LGT RAIN  81  67  62 CALM      30.01F
MCCOMB         RAIN      74  71  91 NE5       30.00F FOG
NATCHEZ        CLOUDY    73  70  88 SE9       29.98S
PINE BELT      CLOUDY    79  66  65 CALM      30.02S
$$

MSZ080>082-012300-
COASTAL MISSISSIPPI

CITY           SKY/WX    TMP DP  RH WIND       PRES   REMARKS
BILOXI         CLOUDY    83  66  56 CALM      29.98F
PASCAGOULA     PTSUNNY   85  68  56 N5        29.98F
GULFPORT       CLOUDY    86  67  52 N3        29.98F
$$



USA.gov is the U.S. government's official web portal to all federal, state and local government web resources and services.